Showing default

LEMUR 2 VALHALLA, 58900

Orbit data source: Space-Track

LEMUR 2 VALHALLA, 58900 is an American payload satellite in SSO that was launched on Wed, 31 Jan 2024 UTC via an ELECTRON launch vehicle from the Rocket Lab Launch Complex (RLLC). Payloads include a variety of satellites, spacecraft, and rockets equipped with specific instruments for various scientific and technological missions. These include communications satellites like Starlink; space stations such as the ISS; scientific satellites like the Hubble; Earth observation satellites from companies like Planet Labs, Umbra, and HawkEye 360; GPS; miniature CubeSats for education and research; and military/defense satellites.

Loading next visibility...
LEMUR 2 VALHALLA details
Identifier
58900, 2024-022B
Orbit
SSO
Last TLE update5 hours ago
Origin
Flag of USSPIRE/NSTAR (US)
ManufacturerSpire/Glasgow
MissionOperational Commercial Early Warn
Bus & MotorCUBESAT 3U, Unknown motor
Mass~25 kg wet, ~25 kg dry
Launch date (UTC)
2024-01-31 (11 months ago)
Launch vehicle
ELECTRON
Launch site
Rocket Lab Launch Complex (RLLC)
Object type
Payload
Rocket body
Debris
Shape & HBRBox + 2 Pan, 1 m
Radar Cross Section0.146 m², Medium (>0.1 m² and < 1m²)

Expand to show TLE details & history

TLE from 5 hours ago
0 LEMUR 2 VALHALLA
1 58900U 24022B   24356.49274338  .00015811  00000-0  70669-3 0  9999
2 58900  97.4599 194.4689 0012535 240.6336 119.3648 15.21343166 49263
Epoch: 2024-12-21T11:49Z
Definitive object data (Epoch: 2024-12-21T11:49:33.028Z)
Latitude-0.00003°
Longitude-73.46183°
Altitude509.117 km
Speed7.607 km/s
True Right ascension12h 57m 52s
True Declination0° 00' 00"
Sunlit
Object was in daylight at TLE epoch
Visualization TLE readout
Latitude2.4968°
Longitude-73.59122°
Altitude509.22 km
Speed7.607 km/s
Apparent Right ascension09h 56m 39s
Apparent Declination-40° 26' 07"
Sunlit
Object is in daylight
Visualization observer readout
Local Sidereal Time15:36:49
Azimuth234.562° WSW
Elevation-21.453°
Doppler factor1
Orbital elements
Apogee altitude507.375 km
Perigee altitude490.134 km
Semi-major axis6,876.892 km
Eccentricity0.0012535
Inclination97.4599°
RAAN194.4689°
Arg. of periapsis240.6336°
True anomaly119.48989°
Mean anomaly119.3648°
Eccentric anomaly119.42735°
Mean motion3.80588 °/min
BSTAR0.00070669
Orbital period94.59 mins
Loading maneuver chart data...
Loading historical data...
Loading historical data...
Loading historical data...
Loading historical data...
Loading historical data...
Loading historical data...
Loading historical data...

LEMUR 2 VALHALLA Visibility forecast

Observer location: undefined°, undefined

Span
Click to sort rows by Start time (UTC) header in descending order
Start Az.
Max El. time (UTC)
Max El. Az.
Max El.
End time (UTC)
End Az.
6 mins2024-12-22 02:35:21.019Z0.155° NNE2024-12-22 02:38:21.019Z298.164° NW37.816°2024-12-22 02:41:21.019Z212.302° SW
6 mins2024-12-22 13:13:21.019Z147.223° SSE2024-12-22 13:15:21.019Z102.085° ESE38.225°2024-12-22 13:19:21.019Z357.186° N
|